Tracking 29892 objects as of 21-Nov-2024
HD Live streaming from Space Station
objects crossing your sky now

STARLINK-5422

Track STARLINK-5422 now!
10-day predictions
STARLINK-5422 is classified as:


NORAD ID: 54804
Int'l Code: 2022-175AY
Perigee: 545.9 km
Apogee: 547.9 km
Inclination: 53.2 °
Period: 95.4 minutes
Semi major axis: 6917 km
RCS: Unknown
Launch date: December 17, 2022
Source: United States (US)
Launch site: AIR FORCE EASTERN TEST RANGE (AFETR)
Your satellite tracking list
Your tracking list is empty




NASA's NSSDC Master Catalog

Two Line Element Set (TLE):
1 54804U 22175AY  24325.12753404 -.00002780  00000-0 -15672-3 0  9993
2 54804  53.2170 359.0259 0001423  87.4559 272.6596 15.08824957108490
Source of the keplerian elements: AFSPC